Weather observations for the past three days for
Lebanon Municipal Airport
Imperial (Metric)
Date Time (edt) Wind (mph) Vis. (mi.) Weather Sky Cond. Temperature (ºF) Relative Humidity Wind Chill (°F) Heat Index (°F) Pressure Precipitation (in)
Air Dwpt 6 hour altimeter (in) sea level (mb) 1 hr 3 hr 6 hr
Max. Min.
18 04:53 Calm 6.00 Fog/Mist CLR 63 61 93% 30.15 1020.0
18 03:53 Calm 4.00 Fog/Mist CLR 62.1 60.1 93% 30.13 1019.4
18 02:53 Calm 7.00 Fair CLR 63 62.1 97% 30.13 1019.2
18 01:53 Calm 10.00 Fair CLR 66 63 80.1 66 90% 30.12 1018.9
18 00:53 Calm 10.00 Fair CLR 70 64.9 84% 30.12 1019.0
17 23:53 S 7 10.00 Fair CLR 72 64.9 79% 30.11 1018.7
17 22:53 S 7 10.00 Fair CLR 73.9 66 76% 30.11 1018.5
17 21:53 S 6 10.00 Fair CLR 75.9 66 72% 77 30.1 1018.3
17 20:53 S 10 10.00 Fair CLR 77 66 69% 79 30.09 1017.8
17 19:53 S 12 10.00 Partly Cloudy SCT065 80.1 66 84 77 62% 82 30.08 1017.6
17 18:53 S 8 10.00 Mostly Cloudy BKN070 82 66.9 60% 85 30.07 1017.2
17 17:53 S 14 10.00 Fair CLR 82 66.9 60% 85 30.06 1017.1
17 16:53 S 9 10.00 Fair CLR 82.9 66 57% 85 30.06 1017.2
17 15:53 S 14 10.00 Fair CLR 82.9 64.9 55% 85 30.06 1017.1
17 14:53 S 12 10.00 Fair CLR 82 64 55% 84 30.06 1017.2
17 13:53 S 8 10.00 Mostly Cloudy BKN085 BKN100 77 63 77 64 62% 79 30.09 1018.4
17 12:53 SW 7 10.00 Overcast OVC090 75 60.1 60% 77 30.11 1018.8
17 11:53 S 8 10.00 Overcast OVC100 75 59 58% 77 30.1 1018.6
17 10:53 SW 8 10.00 Fair CLR 73.9 57.9 57% 30.11 1019.0
17 09:53 S 10 10.00 Fair CLR 71.1 57 61% 30.14 1019.9
17 08:53 S 12 10.00 Fair CLR 66.9 55 66% 30.17 1020.9
17 07:53 Vrbl 5 10.00 Fair CLR 64 55 64 52 73% 30.18 1021.4
17 06:53 S 6 10.00 Fair CLR 59 54 83% 30.18 1021.2
17 05:53 Calm 10.00 Fair CLR 55 52 90% 30.17 1021.2
17 04:53 Calm 10.00 Fair CLR 55 51.1 87% 30.17 1021.0
17 03:53 Calm 10.00 Fair CLR 54 51.1 90% 30.18 1021.6
17 02:53 Calm 10.00 Fair CLR 53.1 50 89% 30.18 1021.3
17 01:53 Calm 10.00 Fair CLR 55 50 66 53.1 83% 30.17 1021.2
17 00:53 Calm 10.00 Fair CLR 54 48.9 83% 30.17 1021.2
16 23:53 Calm 10.00 Fair CLR 54 48 80% 30.17 1021.1
16 22:53 Calm 10.00 Fair CLR 57 50 78% 30.17 1021.0
16 21:53 Calm 10.00 Fair CLR 61 51.1 70% 30.18 1021.5
16 20:53 SE 5 10.00 Fair CLR 62.1 51.1 67% 30.18 1021.4
16 19:53 S 3 10.00 Fair CLR 66 55.9 73.9 66 70% 30.18 1021.5
16 18:53 Calm 10.00 Fair CLR 70 54 57% 30.18 1021.4
16 17:53 Calm 10.00 Fair CLR 73 48 41% 30.17 1021.4
16 16:53 Calm 10.00 Fair CLR 73.9 43 33% 30.18 1021.8
16 15:53 S 6 10.00 Fair CLR 73 44.1 35% 30.19 1022.1
16 14:53 Vrbl 5 10.00 Fair CLR 72 39 30% 30.21 1022.6
16 13:53 Vrbl 3 10.00 Fair CLR 72 39 73 52 30% 30.23 1023.2
16 12:53 Vrbl 3 10.00 Fair CLR 69.1 39 33% 30.24 1023.8
16 11:53 Vrbl 5 10.00 Fair CLR 69.1 39 33% 30.26 1024.4
16 10:53 SW 3 10.00 Fair CLR 64.9 39 39% 30.27 1024.7
16 09:53 SW 3 10.00 Fair CLR 62.1 41 46% 30.28 1025.1
16 08:53 Vrbl 3 10.00 Fair CLR 59 44.1 58% 30.3 1025.6
16 07:53 Calm 10.00 Fair CLR 52 43 52 39 72% 30.3 1025.8
16 06:53 Calm 10.00 Fair CLR 46.9 43 86% 30.27 1024.9
16 05:53 Calm 10.00 Fair CLR 41 39 93% 30.26 1024.5
16 04:53 SE 3 10.00 Fair CLR 39.9 39 97% 30.23 1023.6
16 03:53 Calm 10.00 Fair CLR 41 37.9 89% 30.2 1022.6
16 02:53 Calm 10.00 Fair CLR 43 41 93% 30.2 1022.4
16 01:53 Calm 10.00 Fair CLR 44.1 39.9 64.9 44.1 85% 30.2 1022.3
16 00:53 Calm 10.00 Fair CLR 45 41 86% 30.18 1021.6
15 23:53 NE 6 10.00 Fair CLR 48 42.1 80% 46 30.16 1020.9
15 22:53 Calm 10.00 Fair CLR 48 42.1 80% 30.15 1020.5
15 21:53 NE 5 10.00 Fair CLR 55 41 59% 30.13 1019.7
15 20:53 NE 5 10.00 Fair CLR 57.9 42.1 56% 30.11 1019.0
15 19:53 N 10 G 18 10.00 Fair CLR 64.9 41 72 64.9 42% 30.09 1018.2
15 18:53 N 13 G 22 10.00 Fair CLR 66.9 41 39% 30.06 1017.3
15 17:53 N 10 G 24 10.00 Fair CLR 69.1 42.1 38% 30.05 1016.9
15 16:53 N 9 G 26 10.00 Fair CLR 70 42.1 37% 30.04 1016.7
15 15:53 NW 16 G 25 10.00 Fair CLR 70 41 35% 30.03 1016.4
15 14:53 N 8 G 24 10.00 Partly Cloudy SCT060 71.1 43 36% 30.03 1016.1
15 13:53 N 12 G 22 10.00 Partly Cloudy SCT055 70 43 72 63 38% 30.02 1016.1
15 12:53 N 13 G 28 10.00 A Few Clouds FEW055 70 42.1 37% 30.01 1015.7
15 11:53 NW 14 G 23 10.00 A Few Clouds FEW055 69.1 44.1 41% 30.02 1015.7
15 10:53 N 16 G 31 10.00 A Few Clouds FEW050 66.9 43 42% 30 1015.3
15 09:53 N 15 G 25 10.00 A Few Clouds FEW049 66 44.1 45% 30 1015.3
15 08:53 N 8 10.00 A Few Clouds FEW041 66 48 52% 30.01 1015.5
15 07:53 N 6 10.00 Fair CLR 63 52 63 53.1 68% 30.01 1015.6
15 06:53 N 6 10.00 Fair CLR 60.1 52 75% 29.99 1015.1
15 05:53 NE 5 10.00 Fair CLR 55 52 90% 29.97 1014.3
Date Time (edt) Wind (mph) Vis. (mi.) Weather Sky Cond. Air Dwpt Max. Min. Relative Humidity Wind Chill (°F) Heat Index (°F) altimeter (in) sea level (mb) 1 hr 3 hr 6 hr
6 hour
Temperature (ºF) Pressure Precipitation (in)